Weather History for La Ronge, SK

Change the Weather History Date:

Sunday, January 27, 2013

  Actual Average Record
Temperature  
Mean Temperature 8 °F -  
Max Temperature 13 °F 7 °F 26 °F (2001)
Min Temperature 3 °F -7 °F -41 °F (2004)
Degree Days  
Heating Degree Days 57    
Moisture  
Dew Point 9 °F    
Average Humidity 92    
Maximum Humidity 100    
Minimum Humidity 85    
Precipitation  
Precipitation 0.03 in - - ()
Sea Level Pressure  
Sea Level Pressure 29.95 in    
Wind  
Wind Speed 4 mph ()    
Max Wind Speed 12 mph    
Max Gust Speed -    
Visibility 8.2 miles    
Events Snow    
Averages and records for this station are not official NWS values.
T = Trace of Precipitation, MM = Missing Value Source: Averaged Metar Reports

Daily Weather History Graph

Daily Weather History Graph

Search for Another Location

Airport:

Trip Planner

Search our weather history database for the weather conditions in past years. The results will help you decide how hot, cold, wet, or windy it might be!

Date:

Astronomy

Jan. 27, 2013 Rise Set
Actual Time 9:00 AM CST 5:28 PM CST
Civil Twilight 8:19 AM CST 6:08 PM CST
Nautical Twilight 7:35 AM CST 6:53 PM CST
Astronomical Twilight 6:52 AM CST 7:36 PM CST
Moon 6:44 PM CST (1/27) 8:39 AM CST (1/27)
Length of Visible Light 9h 49m
Length of Day
8h 27m
Full, 100% of the Moon is Illuminated
Jan 27
Full
Feb 3
Last Quarter
Feb 10
New
Feb 17
First Quarter
Feb 25
Full

Hourly Weather History & Observations

Time (CST) Temp. Windchill Dew Point Humidity Pressure Visibility Wind Dir Wind Speed Gust Speed Precip Events Conditions
12:00 AM 10.4 °F - 8.6 °F 92% 29.99 in 3.0 mi Calm Calm - N/A   Light Freezing Drizzle
1:00 AM 10.4 °F 4.0 °F 8.6 °F 92% 29.99 in 4.0 mi ENE 3.5 mph - N/A   Light Freezing Drizzle
2:00 AM 10.4 °F 0.8 °F 8.6 °F 92% 29.99 in 4.0 mi ESE 5.8 mph - N/A   Light Freezing Drizzle
3:00 AM 8.6 °F -1.3 °F 8.6 °F 100% 30.00 in 2.0 mi East 5.8 mph - N/A   Light Freezing Drizzle
4:00 AM 8.6 °F 2.0 °F 8.6 °F 100% 29.98 in 3.0 mi ENE 3.5 mph - N/A   Light Freezing Drizzle
5:00 AM 10.4 °F 0.8 °F 6.8 °F 85% 29.97 in 3.0 mi NE 5.8 mph - N/A   Overcast
6:00 AM 10 °F - 8 °F 89% 29.97 in 3 mi ENE 5.8 mph - -   Partly Cloudy
6:00 AM 10.4 °F 0.8 °F 8.6 °F 92% 29.97 in 3.0 mi ENE 5.8 mph - N/A   Overcast
7:00 AM 10.4 °F 4.0 °F 8.6 °F 92% 29.97 in 2.0 mi ENE 3.5 mph - N/A   Light Freezing Drizzle
8:00 AM 10.4 °F 2.2 °F 8.6 °F 92% 29.97 in 2.0 mi ENE 4.6 mph - N/A   Light Freezing Drizzle
9:00 AM 10.4 °F - 8.6 °F 92% 29.98 in 2.0 mi Calm Calm - N/A   Light Freezing Drizzle
10:00 AM 10.4 °F - 10.4 °F 100% 29.98 in 3.0 mi Calm Calm - N/A   Light Freezing Drizzle
10:17 AM 12.2 °F - 10.4 °F 92% - 3.0 mi Calm Calm - N/A Snow Light Snow
11:00 AM 12.2 °F 2.9 °F 10.4 °F 92% 29.97 in 5.0 mi East 5.8 mph - N/A Snow Light Snow
12:00 PM 11 °F - 10 °F 94% 29.98 in 7 mi SE 6.9 mph - - Snow Light Snow
12:00 PM 12.2 °F 0.7 °F 10.4 °F 92% 29.98 in 8.0 mi ESE 8.1 mph - N/A Snow Light Snow
1:00 PM 12.2 °F 2.9 °F 10.4 °F 92% 29.96 in 10.0 mi ESE 5.8 mph - N/A Snow Light Snow
1:53 PM 12.2 °F 1.7 °F 10.4 °F 92% - 15.0 mi ESE 6.9 mph - N/A   Overcast
2:00 PM 12.2 °F -1.8 °F 10.4 °F 92% 29.95 in 15.0 mi East 11.5 mph - N/A   Overcast
3:00 PM 10.4 °F -0.4 °F 10.4 °F 100% 29.92 in 15.0 mi NE 6.9 mph - N/A   Overcast
4:00 PM 12.2 °F 2.9 °F 10.4 °F 92% 29.92 in 15.0 mi NE 5.8 mph - N/A   Overcast
5:00 PM 12.2 °F 0.7 °F 10.4 °F 92% 29.91 in 15.0 mi NE 8.1 mph - N/A   Overcast
6:00 PM 12 °F - 10 °F 87% 29.91 in 15 mi East 5.8 mph - -   Partly Cloudy
6:00 PM 12.2 °F 0.7 °F 10.4 °F 92% 29.91 in 15.0 mi ENE 8.1 mph - N/A   Overcast
7:00 PM 10.4 °F 0.8 °F 8.6 °F 92% 29.91 in 15.0 mi East 5.8 mph - N/A   Overcast
8:00 PM 10.4 °F -1.5 °F 8.6 °F 92% 29.91 in 15.0 mi ENE 8.1 mph - N/A   Overcast
9:00 PM 10.4 °F -1.5 °F 8.6 °F 92% 29.90 in 15.0 mi ENE 8.1 mph - N/A   Overcast
10:00 PM 10.4 °F -0.4 °F 8.6 °F 92% 29.89 in 15.0 mi ENE 6.9 mph - N/A   Overcast
10:17 PM - - - N/A% - 8.0 mi ENE 6.9 mph - N/A   Unknown
11:00 PM 10.4 °F -1.5 °F 6.8 °F 85% 29.89 in 6.0 mi ENE 8.1 mph - N/A Snow Light Snow